Zurück zum Katalog

SL-6 DEB

AktivHEO
NORAD 13911·DEBRIS·🇷🇺 Russia

Gestartet Sep 11, 1981 von Plesetsk Cosmodrome

Loading…

Nächste Überflüge (nächste 24 Stunden)

TLE

VeraltetSource: Space-Track

Epoche: Aug 16, 2026, 11:43 UTC

1 13911U 81088L   26228.48868799  .00000121  00000-0  20240-3 0  9994
2 13911  63.0274 143.8463 4614759 222.2819  91.1657  5.99178443117390

Verfolge SL-6 DEB in Echtzeit mit AllMySat

Download on the App Store